Regional Weather Roundup
Issued by NWS

Home | Current Version | Previous Version | Text Only | Print | Product List | Glossary Off
Versions: 1 2 3 4 5 6 7 8 9 10 11 12 13 14 15 16 17 18 19 20 21 22 23 24 25 26 27 28 29 30 31 32 33 34 35 36 37 38 39 40 41 42 43 44 45 46 47 48 49 50

000
ASUS43 KMPX 290301
RWRMN
WEATHER ROUNDUP FOR MINNESOTA
NATIONAL WEATHER SERVICE TWIN CITIES/CHANHASSEN MN
1000 PM CDT THU MAY 28 2015


NOTE: "FAIR" INDICATES FEW OR NO CLOUDS BELOW 12,000 FEET WITH NO
SIGNIFICANT WEATHER AND/OR OBSTRUCTIONS TO VISIBILITY. N/A MEANS
CURRENT SKY AND/OR WEATHER CONDITIONS ARE NOT AVAILABLE.

MNZ060>063-068>070-290400-
   Twin Cities Metro

CITY           SKY/WX    TMP DP  RH WIND       PRES   REMARKS
TWIN CITIES    CLOUDY    76  52  43 S13       29.93R
ST PAUL        CLOUDY    71  54  54 S8        29.93R
CRYSTAL        CLOUDY    75  52  44 S9        29.91R
BLAINE         CLOUDY    75  52  43 S10       29.92R
LAKEVILLE      CLOUDY    72  54  53 S9        29.93R
EDEN PRAIRIE   CLOUDY    73  53  49 S10       29.91R
SOUTH ST PAUL  CLOUDY    74  52  45 S6        29.93R
LAKE ELMO      FAIR      72  54  53 SE8       29.94R
$$
MNZ001>005-007-008-013>017-022>024-027-028-290400-
   Northwest Minnesota

CITY           SKY/WX    TMP DP  RH WIND       PRES   REMARKS
BEMIDJI        RAIN      62  58  87 S10       29.86R
HALLOCK        MOCLDY    63  61  94 N18       29.84R
ROSEAU         CLOUDY    63  57  82 CALM      29.83R
WARROAD        CLOUDY    61  57  88 CALM      29.83R
THIEF RVR FALL CLOUDY    64  63  94 CALM      29.83R
CROOKSTON      CLOUDY    66  63  88 SE3       29.81S
FOSSTON        CLOUDY    61  59  94 CALM      29.86R
DETROIT LAKES  HVY RAIN  63  61  94 SE8       29.88R
MOORHEAD       LGT RAIN  64  61  88 S8        29.82R
PARK RAPIDS    CLOUDY    65  58  78 NW12      29.88R
MAHNOMEN       LGT RAIN  63  60  90 SE7       29.83F
$$
MNZ006-009>011-018-025>026-290400-
   North Central Minnesota

CITY           SKY/WX    TMP DP  RH WIND       PRES   REMARKS
BAUDETTE       CLOUDY    60  58  92 S6        29.81F
FLAG ISLAND    LGT RAIN  59  57  94 CALM      29.82R
INTL FALLS     RAIN      59  58  96 E5        29.87S FOG
WASKISH        CLOUDY    61  57  88 SE7       29.86S
BIG FORK       LGT RAIN  63  59  88 N3        29.89R
LONGVILLE      CLOUDY    70  54  56 SE7       29.85R
GRAND RAPIDS   CLOUDY    72  52  49 S15       29.87R
CRANE LAKE     CLOUDY    68  52  56 S6        29.85S
ORR            CLOUDY    68  50  52 SE8       29.83R
COOK           CLOUDY    66  52  59 SE9G18    29.87S
WALKER         LGT RAIN  65  58  78 W9        29.87R
$$
MNZ012-019>021-037-290400-
   Northeast Minnesota

CITY           SKY/WX    TMP DP  RH WIND       PRES   REMARKS
DULUTH         CLOUDY    44  42  93 E9        29.95R FOG
HIBBING        CLOUDY    58  48  69 SE7       29.90R
EVELETH        CLOUDY    59  48  67 SE5       29.92S
DULUTH HARBOR  CLOUDY    43  39  87 NE10      29.98S
TWO HARBORS    MOCLDY    50  45  81 E3        29.95R
SILVER BAY     MOCLDY    48  45  87 CALM      29.95S
GRAND MARAIS     N/A     42  40  92 CALM      29.96R
G MARAIS ARPRT CLOUDY    54  46  76 CALM      29.97R
$$
MNZ029>031-032-039>041-046>048-054>057-064-290400-
   West Central Minnesota

CITY           SKY/WX    TMP DP  RH WIND       PRES   REMARKS
FERGUS FALLS   CLOUDY    63  63 100 NW15G24   29.87R
WHEATON        CLOUDY    63  57  82 N16G24    29.89R
MORRIS         MOCLDY    73  57  56 S18       29.82R
ALEXANDRIA     MOCLDY    74  55  51 S20G26    29.86R
ELBOW LAKE     CLOUDY    65  58  76 N9        29.84R
WADENA         CLOUDY    66  59  77 N12       29.87R
GLENWOOD       MOCLDY    73  57  56 S21G26    29.88R
APPLETON       MOCLDY    75  55  50 S10G17    29.85R
BENSON         MOCLDY    73  55  53 SW14      29.86R
ORTONVILLE     MOCLDY    73  55  53 S10       29.84R
MADISON        MOCLDY    72  55  56 S12       29.86R
WILLMAR        FAIR      73  57  56 S7        29.91R
$$
MNZ033>034-036-042>043-049>051-058-059-290400-
   Central Minnesota

CITY           SKY/WX    TMP DP  RH WIND       PRES   REMARKS
ST CLOUD       MOCLDY    70  53  54 S9        29.89R
SAUK CENTRE    FAIR      73  56  56 S18       29.88R
PAYNESVILLE    MOCLDY    71  55  58 SE14G22   29.91R
AITKIN         MOCLDY    73  52  46 S8        29.87R
PINE RIVER     MOCLDY    70  54  56 SE7       29.88S
BRAINERD       MOCLDY    70  52  52 S9        29.87R
STAPLES        MOCLDY    72  48  43 S12       29.85R
LONG PRAIRIE   FAIR      72  52  49 SE17G23   29.87R
LITTLE FALLS   PTCLDY    68  48  49 SE7       29.88R
LITCHFIELD     CLOUDY    73  57  56 S7        29.92R
BUFFALO        CLOUDY    73  50  43 S6        29.92R
MAPLE LAKE     CLOUDY    73  54  51 CALM      29.92R
$$
MNZ037-044-045-052-053-290400-
   East Central Minnesota

CITY           SKY/WX    TMP DP  RH WIND       PRES   REMARKS
PRINCETON      MOCLDY    72  54  53 SE6       29.91R
MORA           PTCLDY    70  52  52 SE3       29.92R
CAMBRIDGE      MOCLDY    75  55  50 SE5       29.90R
RUSH CITY      MOCLDY    70  54  56 SE6       29.92R
MOOSE LAKE     PTCLDY    50  43  76 NE3       29.92R
HINCKLEY       FAIR      72  54  53 SE6       29.92R
CLOQUET        CLOUDY    43  43 100 E7        29.95R FOG
MCGREGOR       CLOUDY    64  52  63 E7        29.90R
$$
MNZ071>073-080-081-089-090-097-098-290400-
   Southwest Minnesota

CITY           SKY/WX    TMP DP  RH WIND       PRES   REMARKS
MONTEVIDEO     MOCLDY    73  57  56 SW13G23   29.89R
GRANITE FALLS  CLOUDY    72  56  58 S18       29.91R
CANBY          MOCLDY    72  57  60 S10G16    29.88R
MARSHALL       MOCLDY    70  54  56 S18       29.88S
REDWOOD FALLS  CLOUDY    71  59  65 S15       29.91R
OLIVIA         CLOUDY    70  54  56 S14       29.91R
PIPESTONE      CLOUDY    68  59  73 S12       29.90S
WINDOM         CLOUDY    66  59  77 S13       29.94S
WORTHINGTON    MOCLDY    64  55  72 S14       29.94R
JACKSON        CLOUDY    68  61  77 S13       29.95S
TRACY          MOCLDY    69  59  71 S10G18    29.91R
SLAYTON        MOCLDY    65  60  82 SE12      29.92S
$$
MNZ065>067-074>077-082>085-091>093-290400-
   South Central Minnesota

CITY           SKY/WX    TMP DP  RH WIND       PRES   REMARKS
MANKATO        CLOUDY    72  57  60 S12       29.94R
NEW ULM        CLOUDY    70  57  64 S13G20    29.93R
ST JAMES       CLOUDY    70  61  73 S16       29.95R
FAIRMONT       CLOUDY    70  57  64 S17G23    29.96R
GLENCOE        CLOUDY    74  60  62 S12G18    29.93R
FARIBAULT      CLOUDY    73  54  49 S10G18    29.95R
OWATONNA       CLOUDY    72  52  49 S8        29.96R
WASECA         CLOUDY    72  55  56 S15       29.97R
ALBERT LEA     MOCLDY    72  55  56 S9        29.96R
$$
MNZ078>079-086>088-094>096-290400-
   Southeast Minnesota

CITY           SKY/WX    TMP DP  RH WIND       PRES   REMARKS
ROCHESTER      MOCLDY    70  53  54 S10       29.99R
RED WING       MOCLDY    73  54  49 S7        29.94R
STANTON        CLOUDY    74  52  46 S8        29.93R
DODGE CENTER   MOCLDY    72  55  56 S13       29.97R
WINONA         MOCLDY    72  55  56 CALM      29.97R
AUSTIN         MOCLDY    68  55  64 S8        29.97R
PRESTON        MOCLDY    68  53  58 S9        30.00R
$$
ABBREVIATIONS USED IN REMARKS
   TC - TEMPERATURES IN CELSIUS
  WCI - WIND CHILL INDEX
   HX - HEAT INDEX
  VSB - VISIBILITY
$$


USA.gov is the U.S. government's official web portal to all federal, state and local government web resources and services.